TimeEST,TemperatureF,Dew PointF,Humidity,Sea Level PressureIn,VisibilityMPH,Wind Direction,Wind SpeedMPH,Gust SpeedMPH,PrecipitationIn,Events,Conditions,WindDirDegrees,DateUTC
12:11 AM,30.9,23.7,75,30.09,10.0,NNW,3.5,-,N/A,,Clear,330,2013-01-05 05:11:00
12:32 AM,30.2,23.0,75,30.10,10.0,Calm,Calm,-,N/A,,Scattered Clouds,0,2013-01-05 05:32:00
12:52 AM,28.2,21.7,77,30.11,10.0,Calm,Calm,-,N/A,,Scattered Clouds,0,2013-01-05 05:52:00
1:12 AM,27.0,22.5,83,30.11,10.0,Calm,Calm,-,N/A,,Scattered Clouds,0,2013-01-05 06:12:00
1:32 AM,24.8,20.7,84,30.11,10.0,Calm,Calm,-,N/A,,Scattered Clouds,0,2013-01-05 06:32:00
1:52 AM,24.1,21.2,89,30.12,10.0,Calm,Calm,-,N/A,,Mostly Cloudy,0,2013-01-05 06:52:00
2:12 AM,25.3,21.9,87,30.13,10.0,Calm,Calm,-,N/A,,Overcast,0,2013-01-05 07:12:00
2:32 AM,26.6,22.8,86,30.14,10.0,Calm,Calm,-,N/A,,Overcast,0,2013-01-05 07:32:00
2:52 AM,25.2,22.1,88,30.15,10.0,Calm,Calm,-,N/A,,Overcast,0,2013-01-05 07:52:00
3:13 AM,26.2,22.8,87,30.16,10.0,Calm,Calm,-,N/A,,Overcast,0,2013-01-05 08:13:00
3:33 AM,25.9,22.6,88,30.16,10.0,Calm,Calm,-,N/A,,Overcast,0,2013-01-05 08:33:00
3:53 AM,28.2,24.4,86,30.16,10.0,Calm,Calm,-,N/A,,Overcast,0,2013-01-05 08:53:00
4:13 AM,27.5,23.5,85,30.16,10.0,Calm,Calm,-,N/A,,Overcast,0,2013-01-05 09:13:00
4:33 AM,25.7,23.0,89,30.15,10.0,Calm,Calm,-,N/A,,Overcast,0,2013-01-05 09:33:00
4:53 AM,25.9,23.0,89,30.15,10.0,Calm,Calm,-,N/A,,Mostly Cloudy,0,2013-01-05 09:53:00
5:14 AM,23.4,20.5,89,30.15,10.0,Calm,Calm,-,N/A,,Mostly Cloudy,0,2013-01-05 10:14:00
5:34 AM,24.3,21.6,89,30.14,10.0,Calm,Calm,-,N/A,,Mostly Cloudy,0,2013-01-05 10:34:00
5:54 AM,23.4,21.4,92,30.15,10.0,Calm,Calm,-,N/A,,Scattered Clouds,0,2013-01-05 10:54:00
6:14 AM,21.6,19.6,92,30.15,10.0,Calm,Calm,-,N/A,,Scattered Clouds,0,2013-01-05 11:14:00
6:54 AM,19.8,18.0,93,30.15,10.0,Calm,Calm,-,N/A,,Clear,0,2013-01-05 11:54:00
7:15 AM,20.1,18.1,92,30.15,10.0,Calm,Calm,-,N/A,,Clear,0,2013-01-05 12:15:00
7:35 AM,17.2,15.3,92,30.14,10.0,Calm,Calm,-,N/A,,Clear,0,2013-01-05 12:35:00
7:55 AM,17.4,15.4,92,30.15,10.0,Calm,Calm,-,N/A,,Clear,0,2013-01-05 12:55:00
8:15 AM,15.4,13.5,92,30.15,10.0,Calm,Calm,-,N/A,,Clear,0,2013-01-05 13:15:00
8:35 AM,16.3,14.5,93,30.15,7.0,Calm,Calm,-,N/A,,Clear,0,2013-01-05 13:35:00
8:56 AM,17.1,15.4,93,30.15,7.0,Calm,Calm,-,N/A,,Clear,0,2013-01-05 13:56:00
9:16 AM,17.2,15.6,93,30.14,7.0,Calm,Calm,-,N/A,,Clear,0,2013-01-05 14:16:00
9:36 AM,18.5,16.7,93,30.15,7.0,ESE,3.5,-,N/A,,Clear,120,2013-01-05 14:36:00
9:56 AM,22.6,20.7,92,30.14,10.0,SE,3.5,-,N/A,,Clear,130,2013-01-05 14:56:00
10:16 AM,26.1,23.0,88,30.13,10.0,SE,5.8,-,N/A,,Clear,140,2013-01-05 15:16:00
10:51 AM,29.3,23.9,80,30.12,10.0,SE,6.9,-,N/A,,Clear,140,2013-01-05 15:51:00
11:11 AM,30.7,24.6,78,30.12,10.0,SSE,6.9,-,N/A,,Clear,150,2013-01-05 16:11:00
11:52 AM,31.8,25.5,78,30.09,10.0,SSE,9.2,-,N/A,,Clear,160,2013-01-05 16:52:00
12:12 PM,32.0,25.7,78,30.08,10.0,South,11.5,16.1,N/A,,Scattered Clouds,170,2013-01-05 17:12:00
12:32 PM,32.0,26.1,79,30.06,10.0,SSE,9.2,-,N/A,,Mostly Cloudy,160,2013-01-05 17:32:00
12:52 PM,32.0,26.6,80,30.05,10.0,South,8.1,-,N/A,,Overcast,170,2013-01-05 17:52:00
1:12 PM,32.5,27.0,80,30.04,10.0,South,10.4,-,N/A,,Overcast,170,2013-01-05 18:12:00
1:32 PM,33.3,27.5,79,30.02,10.0,South,11.5,16.1,N/A,,Overcast,170,2013-01-05 18:32:00
1:52 PM,34.2,28.0,78,30.01,10.0,South,8.1,-,N/A,,Overcast,180,2013-01-05 18:52:00
2:12 PM,34.7,28.4,78,29.99,10.0,SSW,10.4,21.9,N/A,,Overcast,200,2013-01-05 19:12:00
2:33 PM,35.4,28.9,77,29.98,10.0,South,12.7,19.6,N/A,,Mostly Cloudy,190,2013-01-05 19:33:00
2:53 PM,36.5,30.0,77,29.96,10.0,South,9.2,18.4,N/A,,Mostly Cloudy,190,2013-01-05 19:53:00
3:13 PM,35.8,30.0,80,29.97,10.0,SSW,8.1,16.1,N/A,,Mostly Cloudy,200,2013-01-05 20:13:00
3:33 PM,36.0,29.8,78,29.96,10.0,SSW,11.5,20.7,N/A,,Mostly Cloudy,200,2013-01-05 20:33:00
3:53 PM,35.6,29.3,78,29.94,10.0,SSW,11.5,18.4,N/A,,Scattered Clouds,200,2013-01-05 20:53:00
4:13 PM,36.0,28.4,74,29.93,10.0,SSW,4.6,16.1,N/A,,Clear,210,2013-01-05 21:13:00
4:33 PM,36.0,28.4,74,29.93,10.0,South,10.4,-,N/A,,Clear,190,2013-01-05 21:33:00
4:54 PM,36.1,29.1,76,29.92,10.0,SSW,8.1,18.4,N/A,,Scattered Clouds,200,2013-01-05 21:54:00
5:14 PM,36.3,29.3,76,29.92,10.0,South,9.2,16.1,N/A,,Mostly Cloudy,190,2013-01-05 22:14:00
6:14 PM,36.1,30.2,79,29.90,10.0,SSE,8.1,-,N/A,,Overcast,160,2013-01-05 23:14:00
6:34 PM,36.5,30.9,80,29.90,10.0,South,10.4,17.3,N/A,,Overcast,190,2013-01-05 23:34:00
6:55 PM,36.9,31.6,81,29.90,10.0,South,8.1,18.4,N/A,,Overcast,190,2013-01-05 23:55:00
7:15 PM,37.4,32.0,81,29.89,10.0,SSW,13.8,21.9,N/A,,Overcast,200,2013-01-06 00:15:00
7:35 PM,37.8,31.6,79,29.88,10.0,SSW,15.0,21.9,N/A,,Overcast,210,2013-01-06 00:35:00
7:55 PM,37.9,32.0,79,29.88,10.0,SSW,16.1,23.0,N/A,,Overcast,210,2013-01-06 00:55:00
8:15 PM,37.9,32.0,79,29.88,10.0,SSW,15.0,21.9,N/A,,Overcast,210,2013-01-06 01:15:00
8:35 PM,37.8,32.0,80,29.87,10.0,SW,12.7,21.9,N/A,,Overcast,230,2013-01-06 01:35:00
9:15 PM,37.4,32.9,84,29.86,10.0,SW,10.4,18.4,N/A,,Overcast,230,2013-01-06 02:15:00
9:36 PM,37.4,32.0,81,29.86,10.0,WSW,15.0,21.9,N/A,,Overcast,240,2013-01-06 02:36:00
9:56 PM,36.7,31.1,80,29.87,10.0,WSW,11.5,25.3,N/A,,Overcast,240,2013-01-06 02:56:00
10:16 PM,36.5,30.4,78,29.87,10.0,WSW,10.4,19.6,N/A,,Overcast,250,2013-01-06 03:16:00
10:36 PM,36.1,29.3,76,29.86,10.0,WSW,15.0,21.9,N/A,,Overcast,250,2013-01-06 03:36:00
10:56 PM,36.1,28.6,74,29.86,10.0,West,15.0,21.9,N/A,,Overcast,260,2013-01-06 03:56:00
11:16 PM,36.1,28.6,74,29.86,10.0,WSW,15.0,21.9,N/A,,Overcast,250,2013-01-06 04:16:00
11:36 PM,36.1,28.8,75,29.86,10.0,West,13.8,24.2,N/A,,Overcast,270,2013-01-06 04:36:00
11:51 PM,36.1,28.6,74,29.85,10.0,West,10.4,18.4,N/A,,Overcast,260,2013-01-06 04:51:00